owner,sensor,date,latitude,longitude,vertical_datum,wind_speed,wind_to_direction,wind_speed_of_gust,qcFlag 
COMPS,ioos:station:USF.COMPS:ARP:1,2013-12-03T16:00:00Z,28.4330,-82.6670,10.0,1.45,166.59,3.23,'1111122,1111122,1111122' 
COMPS,ioos:station:USF.COMPS:ARP:1,2013-12-03T16:06:00Z,28.4330,-82.6670,10.0,1.44,173.8,2.84,'1111122,1111122,1111122' 
COMPS,ioos:station:USF.COMPS:ARP:1,2013-12-03T16:12:00Z,28.4330,-82.6670,10.0,1.75,172.68,3.42,'1111122,1111122,1111122' 
COMPS,ioos:station:USF.COMPS:ARP:1,2013-12-03T16:18:00Z,28.4330,-82.6670,10.0,1.74,184.78,3.13,'1111122,1111122,1111122' 
COMPS,ioos:station:USF.COMPS:ARP:1,2013-12-03T16:24:00Z,28.4330,-82.6670,10.0,1.9,200.61,3.52,'1111122,1111122,1111122' 
COMPS,ioos:station:USF.COMPS:ARP:1,2013-12-03T16:30:00Z,28.4330,-82.6670,10.0,2.02,221.1,3.42,'1111122,1111122,1111122' 
COMPS,ioos:station:USF.COMPS:ARP:1,2013-12-03T16:36:00Z,28.4330,-82.6670,10.0,2.14,197.5,4.31,'1111122,1111122,1111122' 
COMPS,ioos:station:USF.COMPS:ARP:1,2013-12-03T16:42:00Z,28.4330,-82.6670,10.0,1.73,170.73,3.33,'1111122,1111122,1111122' 
COMPS,ioos:station:USF.COMPS:ARP:1,2013-12-03T16:48:00Z,28.4330,-82.6670,10.0,1.72,221.28,4.31,'1111122,1111122,1111122' 
COMPS,ioos:station:USF.COMPS:ARP:1,2013-12-03T16:54:00Z,28.4330,-82.6670,10.0,1.96,240.67,3.23,'1111122,1111122,1111122' 
COMPS,ioos:station:USF.COMPS:ARP:1,2013-12-03T17:00:00Z,28.4330,-82.6670,10.0,1.85,272.88,3.03,'1111122,1111122,1111122' 
COMPS,ioos:station:USF.COMPS:ARP:1,2013-12-03T17:06:00Z,28.4330,-82.6670,10.0,2.18,297.32,2.93,'1111122,1111122,1111122' 
COMPS,ioos:station:USF.COMPS:ARP:1,2013-12-03T17:12:00Z,28.4330,-82.6670,10.0,2.88,305.56,3.82,'1111122,1111122,1111122' 
COMPS,ioos:station:USF.COMPS:ARP:1,2013-12-03T17:18:00Z,28.4330,-82.6670,10.0,2.67,305.88,3.62,'1111122,1111122,1111122' 
COMPS,ioos:station:USF.COMPS:ARP:1,2013-12-03T17:24:00Z,28.4330,-82.6670,10.0,2.0,298.26,4.01,'1111122,1111122,1111122' 
COMPS,ioos:station:USF.COMPS:ARP:1,2013-12-03T17:30:00Z,28.4330,-82.6670,10.0,1.28,266.46,2.84,'1111122,1111122,1111122' 
COMPS,ioos:station:USF.COMPS:ARP:1,2013-12-03T17:36:00Z,28.4330,-82.6670,10.0,0.87,318.09,2.05,'1111122,1111122,1111122' 
COMPS,ioos:station:USF.COMPS:ARP:1,2013-12-03T17:42:00Z,28.4330,-82.6670,10.0,0.94,332.56,1.86,'1111122,1111122,1111122' 
COMPS,ioos:station:USF.COMPS:ARP:1,2013-12-03T17:48:00Z,28.4330,-82.6670,10.0,1.21,303.13,3.82,'1111122,1111122,1111122' 
COMPS,ioos:station:USF.COMPS:ARP:1,2013-12-03T17:54:00Z,28.4330,-82.6670,10.0,1.0,272.18,1.95,'1111122,1111122,1111122' 
COMPS,ioos:station:USF.COMPS:ARP:1,2013-12-03T18:00:00Z,28.4330,-82.6670,10.0,1.9,245.65,3.33,'1111122,1111122,1111122' 
COMPS,ioos:station:USF.COMPS:ARP:1,2013-12-03T18:06:00Z,28.4330,-82.6670,10.0,0.99,215.72,2.05,'1111122,1111122,1111122' 
COMPS,ioos:station:USF.COMPS:ARP:1,2013-12-03T18:12:00Z,28.4330,-82.6670,10.0,1.87,286.97,2.84,'1111122,1111122,1111122' 
COMPS,ioos:station:USF.COMPS:ARP:1,2013-12-03T18:18:00Z,28.4330,-82.6670,10.0,1.47,209.89,2.74,'1111122,1111122,1111122' 
COMPS,ioos:station:USF.COMPS:ARP:1,2013-12-03T18:24:00Z,28.4330,-82.6670,10.0,1.4,203.46,3.03,'1111122,1111122,1111122' 
COMPS,ioos:station:USF.COMPS:ARP:1,2013-12-03T18:30:00Z,28.4330,-82.6670,10.0,2.1,237.66,3.33,'1111122,1111122,1111122' 
COMPS,ioos:station:USF.COMPS:ARP:1,2013-12-03T18:36:00Z,28.4330,-82.6670,10.0,1.55,192.34,2.74,'1111122,1111122,1111122' 
COMPS,ioos:station:USF.COMPS:ARP:1,2013-12-03T18:42:00Z,28.4330,-82.6670,10.0,2.68,264.0,4.01,'1111122,1111122,1111122' 
COMPS,ioos:station:USF.COMPS:ARP:1,2013-12-03T18:48:00Z,28.4330,-82.6670,10.0,2.43,251.17,3.62,'1111122,1111122,1111122' 
COMPS,ioos:station:USF.COMPS:ARP:1,2013-12-03T18:54:00Z,28.4330,-82.6670,10.0,2.37,240.24,3.42,'1111122,1111122,1111122' 
COMPS,ioos:station:USF.COMPS:ARP:1,2013-12-03T19:00:00Z,28.4330,-82.6670,10.0,2.16,255.33,3.62,'1111122,1111122,1111122' 
COMPS,ioos:station:USF.COMPS:ARP:1,2013-12-03T19:06:00Z,28.4330,-82.6670,10.0,3.43,288.79,4.6,'1111122,1111122,1111122' 
COMPS,ioos:station:USF.COMPS:ARP:1,2013-12-03T19:12:00Z,28.4330,-82.6670,10.0,2.9,289.39,4.6,'1111122,1111122,1111122' 
COMPS,ioos:station:USF.COMPS:ARP:1,2013-12-03T19:18:00Z,28.4330,-82.6670,10.0,4.84,276.45,5.87,'1111122,1111122,1111122' 
COMPS,ioos:station:USF.COMPS:ARP:1,2013-12-03T19:24:00Z,28.4330,-82.6670,10.0,3.6,288.79,5.09,'1111122,1111122,1111122' 
COMPS,ioos:station:USF.COMPS:ARP:1,2013-12-03T19:30:00Z,28.4330,-82.6670,10.0,2.19,311.61,3.62,'1111122,1111122,1111122' 
COMPS,ioos:station:USF.COMPS:ARP:1,2013-12-03T19:36:00Z,28.4330,-82.6670,10.0,2.35,294.29,4.01,'1111122,1111122,1111122' 
COMPS,ioos:station:USF.COMPS:ARP:1,2013-12-03T19:42:00Z,28.4330,-82.6670,10.0,3.71,275.56,5.09,'1111122,1111122,1111122' 
COMPS,ioos:station:USF.COMPS:ARP:1,2013-12-03T19:48:00Z,28.4330,-82.6670,10.0,3.64,270.83,5.09,'1111122,1111122,1111122' 
COMPS,ioos:station:USF.COMPS:ARP:1,2013-12-03T19:54:00Z,28.4330,-82.6670,10.0,3.81,271.07,5.09,'1111122,1111122,1111122' 
COMPS,ioos:station:USF.COMPS:ARP:1,2013-12-03T20:00:00Z,28.4330,-82.6670,10.0,3.29,277.16,4.11,'1111122,1111122,1111122' 
COMPS,ioos:station:USF.COMPS:ARP:1,2013-12-03T20:06:00Z,28.4330,-82.6670,10.0,3.97,277.44,4.8,'1111122,1111122,1111122' 
COMPS,ioos:station:USF.COMPS:ARP:1,2013-12-03T20:12:00Z,28.4330,-82.6670,10.0,3.95,273.07,5.48,'1111122,1111122,1111122' 
COMPS,ioos:station:USF.COMPS:ARP:1,2013-12-03T20:18:00Z,28.4330,-82.6670,10.0,3.71,275.16,4.6,'1111122,1111122,1111122' 
COMPS,ioos:station:USF.COMPS:ARP:1,2013-12-03T20:24:00Z,28.4330,-82.6670,10.0,3.42,278.02,4.9,'1111122,1111122,1111122' 
COMPS,ioos:station:USF.COMPS:ARP:1,2013-12-03T20:30:00Z,28.4330,-82.6670,10.0,2.85,277.2,4.11,'1111122,1111122,1111122' 
COMPS,ioos:station:USF.COMPS:ARP:1,2013-12-03T20:36:00Z,28.4330,-82.6670,10.0,2.18,275.33,3.42,'1111122,1111122,1111122' 
COMPS,ioos:station:USF.COMPS:ARP:1,2013-12-03T20:42:00Z,28.4330,-82.6670,10.0,1.98,278.39,3.03,'1111122,1111122,1111122' 
COMPS,ioos:station:USF.COMPS:ARP:1,2013-12-03T20:48:00Z,28.4330,-82.6670,10.0,1.48,265.63,3.03,'1111122,1111122,1111122' 
COMPS,ioos:station:USF.COMPS:ARP:1,2013-12-03T20:54:00Z,28.4330,-82.6670,10.0,1.8,265.92,2.84,'1111122,1111122,1111122' 
COMPS,ioos:station:USF.COMPS:ARP:1,2013-12-03T21:00:00Z,28.4330,-82.6670,10.0,0.99,268.57,1.76,'1111122,1111122,1111122' 
COMPS,ioos:station:USF.COMPS:ARP:1,2013-12-03T21:06:00Z,28.4330,-82.6670,10.0,1.21,284.8,1.86,'1111122,1111122,1111122' 
COMPS,ioos:station:USF.COMPS:ARP:1,2013-12-03T21:12:00Z,28.4330,-82.6670,10.0,1.09,300.37,1.66,'1111122,1111122,1111122' 
COMPS,ioos:station:USF.COMPS:ARP:1,2013-12-03T21:18:00Z,28.4330,-82.6670,10.0,2.18,289.57,3.23,'1111122,1111122,1111122' 
COMPS,ioos:station:USF.COMPS:ARP:1,2013-12-03T21:24:00Z,28.4330,-82.6670,10.0,2.91,281.96,3.91,'1111122,1111122,1111122' 
COMPS,ioos:station:USF.COMPS:ARP:1,2013-12-03T21:30:00Z,28.4330,-82.6670,10.0,2.34,281.46,3.33,'1111122,1111122,1111122' 
COMPS,ioos:station:USF.COMPS:ARP:1,2013-12-03T21:36:00Z,28.4330,-82.6670,10.0,1.48,267.35,2.45,'1111122,1111122,1111122' 
COMPS,ioos:station:USF.COMPS:ARP:1,2013-12-03T21:42:00Z,28.4330,-82.6670,10.0,1.42,243.67,2.35,'1111122,1111122,1111122' 
COMPS,ioos:station:USF.COMPS:ARP:1,2013-12-03T21:48:00Z,28.4330,-82.6670,10.0,1.31,251.63,2.05,'1111122,1111122,1111122' 
COMPS,ioos:station:USF.COMPS:ARP:1,2013-12-03T21:54:00Z,28.4330,-82.6670,10.0,1.37,253.9,2.25,'1111122,1111122,1111122' 
COMPS,ioos:station:USF.COMPS:ARP:1,2013-12-03T22:00:00Z,28.4330,-82.6670,10.0,0.95,238.21,1.56,'1111122,1111122,1111122' 
COMPS,ioos:station:USF.COMPS:ARP:1,2013-12-03T22:06:00Z,28.4330,-82.6670,10.0,0.92,250.61,1.66,'1111122,1111122,1111122' 
COMPS,ioos:station:USF.COMPS:ARP:1,2013-12-03T22:12:00Z,28.4330,-82.6670,10.0,1.41,264.13,1.95,'1111122,1111122,1111122' 
COMPS,ioos:station:USF.COMPS:ARP:1,2013-12-03T22:18:00Z,28.4330,-82.6670,10.0,1.19,261.81,1.66,'1111122,1111122,1111122' 
COMPS,ioos:station:USF.COMPS:ARP:1,2013-12-03T22:24:00Z,28.4330,-82.6670,10.0,1.44,261.62,2.05,'1111122,1111122,1111122' 
COMPS,ioos:station:USF.COMPS:ARP:1,2013-12-03T22:30:00Z,28.4330,-82.6670,10.0,1.23,251.61,1.76,'1111122,1111122,1111122' 
COMPS,ioos:station:USF.COMPS:ARP:1,2013-12-03T22:36:00Z,28.4330,-82.6670,10.0,1.12,245.86,1.66,'1111122,1111122,1111122' 
COMPS,ioos:station:USF.COMPS:ARP:1,2013-12-03T22:42:00Z,28.4330,-82.6670,10.0,1.08,243.99,1.76,'1111122,1111122,1111122' 
COMPS,ioos:station:USF.COMPS:ARP:1,2013-12-03T22:48:00Z,28.4330,-82.6670,10.0,0.87,248.7,1.56,'1111122,1111122,1111122' 
COMPS,ioos:station:USF.COMPS:ARP:1,2013-12-03T22:54:00Z,28.4330,-82.6670,10.0,0.74,235.34,1.37,'1111122,1111122,1111122' 
COMPS,ioos:station:USF.COMPS:ARP:1,2013-12-03T23:00:00Z,28.4330,-82.6670,10.0,0.62,234.22,1.07,'1111122,1111122,1111122' 
COMPS,ioos:station:USF.COMPS:ARP:1,2013-12-03T23:06:00Z,28.4330,-82.6670,10.0,0.42,196.64,0.97,'1111122,1111122,1111122' 
COMPS,ioos:station:USF.COMPS:ARP:1,2013-12-03T23:12:00Z,28.4330,-82.6670,10.0,0.43,117.49,0.88,'1111122,1111122,1111122' 
COMPS,ioos:station:USF.COMPS:ARP:1,2013-12-03T23:18:00Z,28.4330,-82.6670,10.0,0.52,133.95,0.78,'1111122,1111122,1111122' 
COMPS,ioos:station:USF.COMPS:ARP:1,2013-12-03T23:24:00Z,28.4330,-82.6670,10.0,0.3,145.29,0.68,'1111122,1111122,1111122' 
COMPS,ioos:station:USF.COMPS:ARP:1,2013-12-03T23:30:00Z,28.4330,-82.6670,10.0,0.04,150.49,0.29,'1111122,1111122,1111122' 
COMPS,ioos:station:USF.COMPS:ARP:1,2013-12-03T23:36:00Z,28.4330,-82.6670,10.0,0.71,246.61,1.07,'1111122,1111122,1111122' 
COMPS,ioos:station:USF.COMPS:ARP:1,2013-12-03T23:42:00Z,28.4330,-82.6670,10.0,0.47,186.56,0.97,'1111122,1111122,1111122' 
COMPS,ioos:station:USF.COMPS:ARP:1,2013-12-03T23:48:00Z,28.4330,-82.6670,10.0,0.19,192.31,0.88,'1111122,1111122,1111122' 
COMPS,ioos:station:USF.COMPS:ARP:1,2013-12-03T23:54:00Z,28.4330,-82.6670,10.0,0.27,166.41,1.76,'1111122,1111122,1111122' 
COMPS,ioos:station:USF.COMPS:ARP:1,2013-12-04T00:00:00Z,28.4330,-82.6670,10.0,0.68,150.02,1.76,'1111122,1111122,1111122' 
COMPS,ioos:station:USF.COMPS:ARP:1,2013-12-04T00:06:00Z,28.4330,-82.6670,10.0,0.66,142.52,1.66,'1111122,1111122,1111122' 
COMPS,ioos:station:USF.COMPS:ARP:1,2013-12-04T00:12:00Z,28.4330,-82.6670,10.0,0.78,139.04,1.95,'1111122,1111122,1111122' 
COMPS,ioos:station:USF.COMPS:ARP:1,2013-12-04T00:18:00Z,28.4330,-82.6670,10.0,0.77,129.52,1.46,'1111122,1111122,1111122' 
COMPS,ioos:station:USF.COMPS:ARP:1,2013-12-04T00:24:00Z,28.4330,-82.6670,10.0,0.63,136.37,1.27,'1111122,1111122,1111122' 
COMPS,ioos:station:USF.COMPS:ARP:1,2013-12-04T00:30:00Z,28.4330,-82.6670,10.0,0.66,136.37,1.27,'1111122,1111122,1111122' 
COMPS,ioos:station:USF.COMPS:ARP:1,2013-12-04T00:36:00Z,28.4330,-82.6670,10.0,0.66,135.31,1.27,'1111122,1111122,1111122' 
COMPS,ioos:station:USF.COMPS:ARP:1,2013-12-04T00:42:00Z,28.4330,-82.6670,10.0,0.73,145.25,1.46,'1111122,1111122,1111122' 
COMPS,ioos:station:USF.COMPS:ARP:1,2013-12-04T00:48:00Z,28.4330,-82.6670,10.0,0.99,146.05,1.76,'1111122,1111122,1111122' 
COMPS,ioos:station:USF.COMPS:ARP:1,2013-12-04T00:54:00Z,28.4330,-82.6670,10.0,0.7,145.66,1.86,'1111122,1111122,1111122' 
COMPS,ioos:station:USF.COMPS:ARP:1,2013-12-04T01:00:00Z,28.4330,-82.6670,10.0,1.14,152.51,2.54,'1111122,1111122,1111122' 
COMPS,ioos:station:USF.COMPS:ARP:1,2013-12-04T01:06:00Z,28.4330,-82.6670,10.0,0.75,148.49,1.86,'1111122,1111122,1111122' 
COMPS,ioos:station:USF.COMPS:ARP:1,2013-12-04T01:12:00Z,28.4330,-82.6670,10.0,0.61,148.01,1.56,'1111122,1111122,1111122' 
COMPS,ioos:station:USF.COMPS:ARP:1,2013-12-04T01:18:00Z,28.4330,-82.6670,10.0,0.61,144.22,1.37,'1111122,1111122,1111122' 
COMPS,ioos:station:USF.COMPS:ARP:1,2013-12-04T01:24:00Z,28.4330,-82.6670,10.0,0.77,153.05,1.46,'1111122,1111122,1111122' 
COMPS,ioos:station:USF.COMPS:ARP:1,2013-12-04T01:30:00Z,28.4330,-82.6670,10.0,0.77,135.14,1.76,'1111122,1111122,1111122' 
COMPS,ioos:station:USF.COMPS:ARP:1,2013-12-04T01:36:00Z,28.4330,-82.6670,10.0,0.73,145.22,2.15,'1111122,1111122,1111122' 
COMPS,ioos:station:USF.COMPS:ARP:1,2013-12-04T01:42:00Z,28.4330,-82.6670,10.0,0.46,136.04,1.46,'1111122,1111122,1111122' 
COMPS,ioos:station:USF.COMPS:ARP:1,2013-12-04T01:48:00Z,28.4330,-82.6670,10.0,0.41,153.11,1.07,'1111122,1111122,1111122' 
COMPS,ioos:station:USF.COMPS:ARP:1,2013-12-04T01:54:00Z,28.4330,-82.6670,10.0,0.44,147.88,1.66,'1111122,1111122,1111122' 
COMPS,ioos:station:USF.COMPS:ARP:1,2013-12-04T02:00:00Z,28.4330,-82.6670,10.0,0.69,152.32,1.86,'1111122,1111122,1111122' 
COMPS,ioos:station:USF.COMPS:ARP:1,2013-12-04T02:06:00Z,28.4330,-82.6670,10.0,0.86,156.05,2.05,'1111122,1111122,1111122' 
COMPS,ioos:station:USF.COMPS:ARP:1,2013-12-04T02:12:00Z,28.4330,-82.6670,10.0,0.4,124.55,0.97,'1111122,1111122,1111122' 
COMPS,ioos:station:USF.COMPS:ARP:1,2013-12-04T02:18:00Z,28.4330,-82.6670,10.0,0.46,119.19,1.17,'1111122,1111122,1111122' 
COMPS,ioos:station:USF.COMPS:ARP:1,2013-12-04T02:24:00Z,28.4330,-82.6670,10.0,0.51,131.4,1.17,'1111122,1111122,1111122' 
COMPS,ioos:station:USF.COMPS:ARP:1,2013-12-04T02:30:00Z,28.4330,-82.6670,10.0,0.58,119.95,1.17,'1111122,1111122,1111122' 
COMPS,ioos:station:USF.COMPS:ARP:1,2013-12-04T02:36:00Z,28.4330,-82.6670,10.0,0.35,114.74,0.88,'1111122,1111122,1111122' 
COMPS,ioos:station:USF.COMPS:ARP:1,2013-12-04T02:42:00Z,28.4330,-82.6670,10.0,0.35,109.23,0.68,'1111122,1111122,1111122' 
COMPS,ioos:station:USF.COMPS:ARP:1,2013-12-04T02:48:00Z,28.4330,-82.6670,10.0,0.55,117.94,0.88,'1111122,1111122,1111122' 
COMPS,ioos:station:USF.COMPS:ARP:1,2013-12-04T02:54:00Z,28.4330,-82.6670,10.0,0.41,119.65,1.07,'1111122,1111122,1111122' 
COMPS,ioos:station:USF.COMPS:ARP:1,2013-12-04T03:00:00Z,28.4330,-82.6670,10.0,0.56,133.98,1.56,'1111122,1111122,1111122' 
COMPS,ioos:station:USF.COMPS:ARP:1,2013-12-04T03:06:00Z,28.4330,-82.6670,10.0,0.38,116.96,1.37,'1111122,1111122,1111122' 
COMPS,ioos:station:USF.COMPS:ARP:1,2013-12-04T03:12:00Z,28.4330,-82.6670,10.0,0.51,110.26,0.97,'1111122,1111122,1111122' 
COMPS,ioos:station:USF.COMPS:ARP:1,2013-12-04T03:18:00Z,28.4330,-82.6670,10.0,0.65,113.06,0.88,'1111122,1111122,1111122' 
COMPS,ioos:station:USF.COMPS:ARP:1,2013-12-04T03:24:00Z,28.4330,-82.6670,10.0,0.36,128.47,0.78,'1111122,1111122,1111122' 
COMPS,ioos:station:USF.COMPS:ARP:1,2013-12-04T03:30:00Z,28.4330,-82.6670,10.0,0.7,118.54,1.46,'1111122,1111122,1111122' 
COMPS,ioos:station:USF.COMPS:ARP:1,2013-12-04T03:36:00Z,28.4330,-82.6670,10.0,0.68,130.66,1.46,'1111122,1111122,1111122' 
COMPS,ioos:station:USF.COMPS:ARP:1,2013-12-04T03:42:00Z,28.4330,-82.6670,10.0,0.79,121.91,1.37,'1111122,1111122,1111122' 
COMPS,ioos:station:USF.COMPS:ARP:1,2013-12-04T03:48:00Z,28.4330,-82.6670,10.0,0.96,111.01,1.46,'1111122,1111122,1111122' 
COMPS,ioos:station:USF.COMPS:ARP:1,2013-12-04T03:54:00Z,28.4330,-82.6670,10.0,0.92,124.59,1.66,'1111122,1111122,1111122' 
COMPS,ioos:station:USF.COMPS:ARP:1,2013-12-04T04:00:00Z,28.4330,-82.6670,10.0,1.06,116.12,1.56,'1111122,1111122,1111122' 
COMPS,ioos:station:USF.COMPS:ARP:1,2013-12-04T04:06:00Z,28.4330,-82.6670,10.0,0.97,122.5,1.56,'1111122,1111122,1111122' 
COMPS,ioos:station:USF.COMPS:ARP:1,2013-12-04T04:12:00Z,28.4330,-82.6670,10.0,1.02,125.47,1.66,'1111122,1111122,1111122' 
COMPS,ioos:station:USF.COMPS:ARP:1,2013-12-04T04:18:00Z,28.4330,-82.6670,10.0,1.03,121.01,1.86,'1111122,1111122,1111122' 
COMPS,ioos:station:USF.COMPS:ARP:1,2013-12-04T04:24:00Z,28.4330,-82.6670,10.0,0.95,115.18,1.86,'1111122,1111122,1111122' 
COMPS,ioos:station:USF.COMPS:ARP:1,2013-12-04T04:30:00Z,28.4330,-82.6670,10.0,1.03,119.74,1.76,'1111122,1111122,1111122' 
COMPS,ioos:station:USF.COMPS:ARP:1,2013-12-04T04:36:00Z,28.4330,-82.6670,10.0,0.98,119.38,1.76,'1111122,1111122,1111122' 
COMPS,ioos:station:USF.COMPS:ARP:1,2013-12-04T04:42:00Z,28.4330,-82.6670,10.0,1.0,120.3,1.46,'1111122,1111122,1111122' 
COMPS,ioos:station:USF.COMPS:ARP:1,2013-12-04T04:48:00Z,28.4330,-82.6670,10.0,1.21,120.73,1.95,'1111122,1111122,1111122' 
COMPS,ioos:station:USF.COMPS:ARP:1,2013-12-04T04:54:00Z,28.4330,-82.6670,10.0,1.35,107.9,1.95,'1111122,1111122,1111122' 
COMPS,ioos:station:USF.COMPS:ARP:1,2013-12-04T05:00:00Z,28.4330,-82.6670,10.0,1.2,115.81,1.95,'1111122,1111122,1111122' 
COMPS,ioos:station:USF.COMPS:ARP:1,2013-12-04T05:06:00Z,28.4330,-82.6670,10.0,1.06,123.05,2.05,'1111122,1111122,1111122' 
COMPS,ioos:station:USF.COMPS:ARP:1,2013-12-04T05:12:00Z,28.4330,-82.6670,10.0,0.93,127.02,1.66,'1111122,1111122,1111122' 
COMPS,ioos:station:USF.COMPS:ARP:1,2013-12-04T05:18:00Z,28.4330,-82.6670,10.0,1.05,125.94,1.86,'1111122,1111122,1111122' 
COMPS,ioos:station:USF.COMPS:ARP:1,2013-12-04T05:24:00Z,28.4330,-82.6670,10.0,0.93,129.66,1.86,'1111122,1111122,1111122' 
COMPS,ioos:station:USF.COMPS:ARP:1,2013-12-04T05:30:00Z,28.4330,-82.6670,10.0,1.25,125.04,2.25,'1111122,1111122,1111122' 
COMPS,ioos:station:USF.COMPS:ARP:1,2013-12-04T05:36:00Z,28.4330,-82.6670,10.0,1.3,123.24,2.25,'1111122,1111122,1111122' 
COMPS,ioos:station:USF.COMPS:ARP:1,2013-12-04T05:42:00Z,28.4330,-82.6670,10.0,1.22,137.14,3.23,'1111122,1111122,1111122' 
COMPS,ioos:station:USF.COMPS:ARP:1,2013-12-04T05:48:00Z,28.4330,-82.6670,10.0,0.86,142.01,2.54,'1111122,1111122,1111122' 
COMPS,ioos:station:USF.COMPS:ARP:1,2013-12-04T05:54:00Z,28.4330,-82.6670,10.0,0.8,144.5,1.86,'1111122,1111122,1111122' 
COMPS,ioos:station:USF.COMPS:ARP:1,2013-12-04T06:00:00Z,28.4330,-82.6670,10.0,0.74,156.03,1.86,'1111122,1111122,1111122' 
COMPS,ioos:station:USF.COMPS:ARP:1,2013-12-04T06:06:00Z,28.4330,-82.6670,10.0,0.57,140.55,1.27,'1111122,1111122,1111122' 
COMPS,ioos:station:USF.COMPS:ARP:1,2013-12-04T06:12:00Z,28.4330,-82.6670,10.0,0.49,141.84,1.27,'1111122,1111122,1111122' 
COMPS,ioos:station:USF.COMPS:ARP:1,2013-12-04T06:18:00Z,28.4330,-82.6670,10.0,0.69,142.45,1.56,'1111122,1111122,1111122' 
COMPS,ioos:station:USF.COMPS:ARP:1,2013-12-04T06:24:00Z,28.4330,-82.6670,10.0,0.6,130.97,1.37,'1111122,1111122,1111122' 
COMPS,ioos:station:USF.COMPS:ARP:1,2013-12-04T06:30:00Z,28.4330,-82.6670,10.0,0.46,119.54,1.07,'1111122,1111122,1111122' 
COMPS,ioos:station:USF.COMPS:ARP:1,2013-12-04T06:36:00Z,28.4330,-82.6670,10.0,0.53,129.7,1.07,'1111122,1111122,1111122' 
COMPS,ioos:station:USF.COMPS:ARP:1,2013-12-04T06:42:00Z,28.4330,-82.6670,10.0,0.69,136.92,1.56,'1111122,1111122,1111122' 
COMPS,ioos:station:USF.COMPS:ARP:1,2013-12-04T06:48:00Z,28.4330,-82.6670,10.0,0.71,110.8,1.17,'1111122,1111122,1111122' 
COMPS,ioos:station:USF.COMPS:ARP:1,2013-12-04T06:54:00Z,28.4330,-82.6670,10.0,0.58,106.88,0.97,'1111122,1111122,1111122' 
COMPS,ioos:station:USF.COMPS:ARP:1,2013-12-04T07:00:00Z,28.4330,-82.6670,10.0,0.55,111.94,1.17,'1111122,1111122,1111122' 
COMPS,ioos:station:USF.COMPS:ARP:1,2013-12-04T07:06:00Z,28.4330,-82.6670,10.0,0.69,123.97,1.56,'1111122,1111122,1111122' 
COMPS,ioos:station:USF.COMPS:ARP:1,2013-12-04T07:12:00Z,28.4330,-82.6670,10.0,0.84,127.49,1.27,'1111122,1111122,1111122' 
COMPS,ioos:station:USF.COMPS:ARP:1,2013-12-04T07:18:00Z,28.4330,-82.6670,10.0,0.69,128.66,1.46,'1111122,1111122,1111122' 
COMPS,ioos:station:USF.COMPS:ARP:1,2013-12-04T07:24:00Z,28.4330,-82.6670,10.0,0.84,137.4,1.66,'1111122,1111122,1111122' 
COMPS,ioos:station:USF.COMPS:ARP:1,2013-12-04T07:30:00Z,28.4330,-82.6670,10.0,0.97,129.75,2.05,'1111122,1111122,1111122' 
COMPS,ioos:station:USF.COMPS:ARP:1,2013-12-04T07:36:00Z,28.4330,-82.6670,10.0,0.92,110.12,1.27,'1111122,1111122,1111122' 
COMPS,ioos:station:USF.COMPS:ARP:1,2013-12-04T07:42:00Z,28.4330,-82.6670,10.0,1.33,105.5,1.86,'1111122,1111122,1111122' 
COMPS,ioos:station:USF.COMPS:ARP:1,2013-12-04T07:48:00Z,28.4330,-82.6670,10.0,1.33,112.92,2.05,'1111122,1111122,1111122' 
COMPS,ioos:station:USF.COMPS:ARP:1,2013-12-04T07:54:00Z,28.4330,-82.6670,10.0,1.18,114.62,1.86,'1111122,1111122,1111122' 
COMPS,ioos:station:USF.COMPS:ARP:1,2013-12-04T08:00:00Z,28.4330,-82.6670,10.0,0.77,126.59,1.46,'1111122,1111122,1111122' 
COMPS,ioos:station:USF.COMPS:ARP:1,2013-12-04T08:06:00Z,28.4330,-82.6670,10.0,0.84,132.92,1.66,'1111122,1111122,1111122' 
COMPS,ioos:station:USF.COMPS:ARP:1,2013-12-04T08:12:00Z,28.4330,-82.6670,10.0,0.84,124.41,1.86,'1111122,1111122,1111122' 
COMPS,ioos:station:USF.COMPS:ARP:1,2013-12-04T08:18:00Z,28.4330,-82.6670,10.0,0.76,123.07,1.37,'1111122,1111122,1111122' 
COMPS,ioos:station:USF.COMPS:ARP:1,2013-12-04T08:24:00Z,28.4330,-82.6670,10.0,0.87,125.11,1.27,'1111122,1111122,1111122' 
COMPS,ioos:station:USF.COMPS:ARP:1,2013-12-04T08:30:00Z,28.4330,-82.6670,10.0,0.87,127.69,1.95,'1111122,1111122,1111122' 
COMPS,ioos:station:USF.COMPS:ARP:1,2013-12-04T08:36:00Z,28.4330,-82.6670,10.0,0.93,131.76,1.86,'1111122,1111122,1111122' 
COMPS,ioos:station:USF.COMPS:ARP:1,2013-12-04T08:42:00Z,28.4330,-82.6670,10.0,1.02,132.32,2.35,'1111122,1111122,1111122' 
COMPS,ioos:station:USF.COMPS:ARP:1,2013-12-04T08:48:00Z,28.4330,-82.6670,10.0,1.05,138.81,1.86,'1111122,1111122,1111122' 
COMPS,ioos:station:USF.COMPS:ARP:1,2013-12-04T08:54:00Z,28.4330,-82.6670,10.0,0.98,142.15,2.25,'1111122,1111122,1111122' 
COMPS,ioos:station:USF.COMPS:ARP:1,2013-12-04T09:00:00Z,28.4330,-82.6670,10.0,1.1,134.2,1.86,'1111122,1111122,1111122' 
COMPS,ioos:station:USF.COMPS:ARP:1,2013-12-04T09:06:00Z,28.4330,-82.6670,10.0,0.81,133.2,1.86,'1111122,1111122,1111122' 
COMPS,ioos:station:USF.COMPS:ARP:1,2013-12-04T09:12:00Z,28.4330,-82.6670,10.0,0.96,132.95,1.66,'1111122,1111122,1111122' 
COMPS,ioos:station:USF.COMPS:ARP:1,2013-12-04T09:18:00Z,28.4330,-82.6670,10.0,0.88,127.61,1.95,'1111122,1111122,1111122' 
COMPS,ioos:station:USF.COMPS:ARP:1,2013-12-04T09:24:00Z,28.4330,-82.6670,10.0,0.96,137.51,2.25,'1111122,1111122,1111122' 
COMPS,ioos:station:USF.COMPS:ARP:1,2013-12-04T09:30:00Z,28.4330,-82.6670,10.0,0.94,127.66,1.66,'1111122,1111122,1111122' 
COMPS,ioos:station:USF.COMPS:ARP:1,2013-12-04T09:36:00Z,28.4330,-82.6670,10.0,1.03,128.87,1.86,'1111122,1111122,1111122' 
COMPS,ioos:station:USF.COMPS:ARP:1,2013-12-04T09:42:00Z,28.4330,-82.6670,10.0,1.23,115.37,1.95,'1111122,1111122,1111122' 
COMPS,ioos:station:USF.COMPS:ARP:1,2013-12-04T09:48:00Z,28.4330,-82.6670,10.0,0.87,115.32,1.66,'1111122,1111122,1111122' 
COMPS,ioos:station:USF.COMPS:ARP:1,2013-12-04T09:54:00Z,28.4330,-82.6670,10.0,1.09,126.67,2.35,'1111122,1111122,1111122' 
COMPS,ioos:station:USF.COMPS:ARP:1,2013-12-04T10:00:00Z,28.4330,-82.6670,10.0,1.15,113.44,2.05,'1111122,1111122,1111122' 
COMPS,ioos:station:USF.COMPS:ARP:1,2013-12-04T10:06:00Z,28.4330,-82.6670,10.0,1.26,124.41,2.05,'1111122,1111122,1111122' 
COMPS,ioos:station:USF.COMPS:ARP:1,2013-12-04T10:12:00Z,28.4330,-82.6670,10.0,0.81,132.11,1.66,'1111122,1111122,1111122' 
COMPS,ioos:station:USF.COMPS:ARP:1,2013-12-04T10:18:00Z,28.4330,-82.6670,10.0,0.79,140.64,2.45,'1111122,1111122,1111122' 
COMPS,ioos:station:USF.COMPS:ARP:1,2013-12-04T10:24:00Z,28.4330,-82.6670,10.0,0.98,130.56,1.95,'1111122,1111122,1111122' 
COMPS,ioos:station:USF.COMPS:ARP:1,2013-12-04T10:30:00Z,28.4330,-82.6670,10.0,0.97,123.61,2.15,'1111122,1111122,1111122' 
COMPS,ioos:station:USF.COMPS:ARP:1,2013-12-04T10:36:00Z,28.4330,-82.6670,10.0,1.0,114.13,1.95,'1111122,1111122,1111122' 
COMPS,ioos:station:USF.COMPS:ARP:1,2013-12-04T10:42:00Z,28.4330,-82.6670,10.0,0.87,119.45,1.37,'1111122,1111122,1111122' 
COMPS,ioos:station:USF.COMPS:ARP:1,2013-12-04T10:48:00Z,28.4330,-82.6670,10.0,0.79,124.58,1.66,'1111122,1111122,1111122' 
COMPS,ioos:station:USF.COMPS:ARP:1,2013-12-04T10:54:00Z,28.4330,-82.6670,10.0,0.92,110.22,1.27,'1111122,1111122,1111122' 
COMPS,ioos:station:USF.COMPS:ARP:1,2013-12-04T11:00:00Z,28.4330,-82.6670,10.0,0.84,118.73,1.37,'1111122,1111122,1111122' 
COMPS,ioos:station:USF.COMPS:ARP:1,2013-12-04T11:06:00Z,28.4330,-82.6670,10.0,0.63,128.16,1.27,'1111122,1111122,1111122' 
COMPS,ioos:station:USF.COMPS:ARP:1,2013-12-04T11:12:00Z,28.4330,-82.6670,10.0,0.64,108.53,1.27,'1111122,1111122,1111122' 
COMPS,ioos:station:USF.COMPS:ARP:1,2013-12-04T11:18:00Z,28.4330,-82.6670,10.0,0.64,104.7,0.97,'1111122,1111122,1111122' 
COMPS,ioos:station:USF.COMPS:ARP:1,2013-12-04T11:24:00Z,28.4330,-82.6670,10.0,0.82,102.21,1.17,'1111122,1111122,1111122' 
COMPS,ioos:station:USF.COMPS:ARP:1,2013-12-04T11:30:00Z,28.4330,-82.6670,10.0,0.74,89.42,1.17,'1111122,1111122,1111122' 